Regional Weather Roundup
Issued by NWS Bismarck, ND

Home | Current Version | Previous Version | Text Only | Print | Product List | Glossary On
Versions: 1 2 3 4 5 6 7 8 9 10 11 12 13 14 15 16 17 18 19 20 21 22 23 24 25 26 27 28 29 30 31 32 33 34 35 36 37 38 39 40 41 42 43 44 45 46 47 48 49 50
000
ASUS43 KBIS 301110
RWRBIS

NWR BROADCAST TEXT
NATIONAL WEATHER SERVICE BISMARCK ND
600 AM CDT THU JUL 30 2015

NOTE: "FAIR" INDICATES FEW OR NO CLOUDS BELOW 12,000 FEET WITH NO
SIGNIFICANT WEATHER AND/OR OBSTRUCTIONS TO VISIBILITY.


CITY           SKY/WX    TMP DP  RH WIND       PRES   REMARKS
WILLISTON      CLEAR     53  50  89 S3        30.13S
MINOT          CLOUDY    61  52  72 W8        30.07S
MINOT AFB      DRIZZLE   59  59  99 W8        30.06F
BISMARCK       CLEAR     56  49  77 W5        30.12R
DICKINSON      CLEAR     54  44  69 SW3       30.15S
GARRISON         N/A     53  50  89 NW6       30.12R
HETTINGER ARPT CLEAR     49  43  80 W3        30.20S
JAMESTOWN      CLEAR     58  52  80 W8        30.07R
BEACH          FAIR      50  46  87 S3        30.18R
CROSBY         FAIR      54  54 100 SW6       30.12R
HARVEY         FAIR      54  54 100 W6        30.08S
HAZEN          FAIR      48  46  93 SW3       30.15R
LINTON         FAIR      46  46 100 NE3       30.13S
MANDAN         FAIR      54  48  82 SW10      30.12S
OAKES            N/A     55  55 100 W7        30.08S
STANLEY        FAIR      55  55 100 VRB3      30.12S
$$

CITY           SKY/WX    TMP DP  RH WIND       PRES   REMARKS
GRAND FORKS    CLEAR     62  56  80 W8        29.96R
GRAND FORKS AF CLEAR     63  56  78 W8        29.98R
DEVILS LAKE    PTCLDY    63  50  63 W13       30.02R
FARGO          CLEAR     59  55  87 W9        30.01R
CAVALIER       FAIR      63  55  77 W10       29.94S
GRAFTON        FAIR      63  57  82 W12       29.96R
GWINNER          N/A     57  54  88 SW9       30.07S
LANGDON        FAIR      57  54  88 W13       30.00R
ROLLA          PTSUNNY   63  52  67 W10       30.03R
WALHALLA       FAIR      63  59  88 MISG      29.95R
$$

CITY           SKY/WX    TMP DP  RH WIND       PRES   REMARKS
ABERDEEN       CLEAR     57  50  77 CALM      30.10F
MOBRIDGE         N/A     54  53  97 CALM      30.12S
BUFFALO          N/A     57  40  52 W8        30.15S
RAPID CITY     CLEAR     56  45  66 W9        30.24R
GLASGOW        CLEAR     56  51  84 N5        30.16R
SIDNEY         PTCLDY    54  48  82 SW3       30.15S
WOLF POINT     PTCLDY    54  50  86 CALM      30.16R
GLENDIVE       CLEAR     54  48  82 CALM      30.18S
MILES CITY     CLEAR     55  46  71 S7        30.17S
BAKER          CLEAR     62  39  42 SW10      30.19S
$$

CITY           SKY/WX    TMP DP  RH WIND       PRES   REMARKS
BILLINGS       PTCLDY    59  40  49 SW13      30.27R
GREAT FALLS    CLEAR     52  43  71 W7        30.25S
REGINA         PTCLDY    54  52  94 W13       30.10R
$$




USA.gov is the U.S. government's official web portal to all federal, state and local government web resources and services.